TimeEDT,TemperatureF,Dew PointF,Humidity,Sea Level PressureIn,VisibilityMPH,Wind Direction,Wind SpeedMPH,Gust SpeedMPH,PrecipitationIn,Events,Conditions,WindDirDegrees,DateUTC
12:31 AM,69.8,69.8,100,29.94,5.0,Calm,Calm,-,N/A,,Scattered Clouds,0,2013-08-29 04:31:00
12:42 AM,69.8,69.8,100,29.95,4.0,Calm,Calm,-,N/A,,Mostly Cloudy,0,2013-08-29 04:42:00
12:53 AM,70.0,69.1,97,29.92,4.0,Calm,Calm,-,N/A,,Mostly Cloudy,0,2013-08-29 04:53:00
1:36 AM,69.8,69.8,100,29.95,4.0,Calm,Calm,-,N/A,,Mostly Cloudy,0,2013-08-29 05:36:00
1:44 AM,69.8,69.8,100,29.96,3.0,North,3.5,-,N/A,,Overcast,10,2013-08-29 05:44:00
1:53 AM,70.0,69.1,97,29.93,3.0,Calm,Calm,-,N/A,,Overcast,0,2013-08-29 05:53:00
2:18 AM,69.8,69.8,100,29.96,2.5,Calm,Calm,-,N/A,,Overcast,0,2013-08-29 06:18:00
2:27 AM,69.8,69.8,100,29.96,1.8,NE,3.5,-,N/A,,Overcast,50,2013-08-29 06:27:00
2:38 AM,69.8,69.8,100,29.96,2.0,NE,3.5,-,N/A,,Overcast,40,2013-08-29 06:38:00
2:53 AM,70.0,69.1,97,29.94,1.0,NNE,5.8,-,N/A,,Overcast,20,2013-08-29 06:53:00
2:59 AM,69.8,69.8,100,29.96,0.5,NE,3.5,-,N/A,Fog,Fog,40,2013-08-29 06:59:00
3:05 AM,69.8,69.8,100,29.96,1.0,Calm,Calm,-,N/A,,Overcast,0,2013-08-29 07:05:00
3:20 AM,69.8,69.8,100,29.97,2.0,Calm,Calm,-,N/A,,Overcast,0,2013-08-29 07:20:00
3:33 AM,69.8,69.8,100,29.96,1.2,Calm,Calm,-,N/A,,Overcast,0,2013-08-29 07:33:00
3:43 AM,69.8,69.8,100,29.97,0.8,NNE,3.5,-,N/A,,Mist,20,2013-08-29 07:43:00
3:53 AM,70.0,69.1,97,29.94,0.8,NE,3.5,-,N/A,,Mist,40,2013-08-29 07:53:00
4:00 AM,69.8,69.8,100,29.97,1.0,Calm,Calm,-,N/A,,Mist,0,2013-08-29 08:00:00
4:07 AM,69.8,69.8,100,29.97,0.5,ENE,3.5,-,N/A,Fog,Fog,60,2013-08-29 08:07:00
4:53 AM,69.1,69.1,100,29.95,0.5,Calm,Calm,-,N/A,Fog,Fog,0,2013-08-29 08:53:00
5:05 AM,69.8,69.8,100,29.98,0.8,Calm,Calm,-,N/A,,Mist,0,2013-08-29 09:05:00
5:31 AM,69.8,69.8,100,29.99,1.0,NNE,3.5,-,N/A,,Mist,30,2013-08-29 09:31:00
5:38 AM,69.8,69.8,100,29.99,1.5,NE,3.5,-,N/A,,Overcast,40,2013-08-29 09:38:00
5:53 AM,69.1,69.1,100,29.96,1.5,Calm,Calm,-,N/A,,Overcast,0,2013-08-29 09:53:00
6:07 AM,69.8,69.8,100,30.00,0.8,Calm,Calm,-,N/A,,Mist,0,2013-08-29 10:07:00
6:14 AM,69.8,69.8,100,30.00,0.5,Calm,Calm,-,N/A,Fog,Fog,0,2013-08-29 10:14:00
6:26 AM,69.8,69.8,100,30.00,0.8,NE,3.5,-,N/A,,Mist,50,2013-08-29 10:26:00
6:36 AM,69.8,69.8,100,30.01,1.2,NE,3.5,-,N/A,,Overcast,40,2013-08-29 10:36:00
6:49 AM,69.8,69.8,100,30.01,2.0,Calm,Calm,-,N/A,,Overcast,0,2013-08-29 10:49:00
6:53 AM,70.0,69.1,97,29.99,2.0,Variable,3.5,-,N/A,,Overcast,0,2013-08-29 10:53:00
7:07 AM,69.8,69.8,100,30.02,0.8,Calm,Calm,-,N/A,,Overcast,0,2013-08-29 11:07:00
7:15 AM,69.8,69.8,100,30.02,0.5,ENE,3.5,-,0.00,Fog-Rain,Light Rain,70,2013-08-29 11:15:00
7:40 AM,69.8,69.8,100,30.03,1.0,Calm,Calm,-,0.00,,Overcast,0,2013-08-29 11:40:00
7:53 AM,70.0,69.1,97,30.01,1.5,Calm,Calm,-,0.00,,Overcast,0,2013-08-29 11:53:00
8:04 AM,69.8,69.8,100,30.05,2.0,Calm,Calm,-,N/A,,Overcast,0,2013-08-29 12:04:00
8:29 AM,71.6,69.8,94,30.05,3.0,Calm,Calm,-,N/A,,Overcast,0,2013-08-29 12:29:00
8:53 AM,72.0,69.1,91,30.02,5.0,Variable,3.5,-,N/A,,Overcast,0,2013-08-29 12:53:00
9:11 AM,73.4,69.8,88,30.06,5.0,NNE,4.6,-,N/A,,Overcast,30,2013-08-29 13:11:00
9:53 AM,73.0,68.0,84,30.04,7.0,ENE,3.5,-,N/A,,Overcast,60,2013-08-29 13:53:00
10:06 AM,73.4,68.0,83,30.07,7.0,NE,4.6,-,N/A,,Overcast,40,2013-08-29 14:06:00
10:18 AM,73.4,68.0,83,30.07,9.0,Calm,Calm,-,N/A,,Overcast,0,2013-08-29 14:18:00
10:53 AM,75.0,66.9,76,30.05,10.0,NNE,4.6,-,N/A,,Overcast,30,2013-08-29 14:53:00
11:17 AM,75.2,66.2,73,30.08,10.0,ENE,4.6,-,N/A,,Overcast,70,2013-08-29 15:17:00
11:53 AM,79.0,66.9,66,30.05,10.0,Variable,3.5,-,N/A,,Scattered Clouds,0,2013-08-29 15:53:00
12:53 PM,80.1,64.9,60,30.04,10.0,Calm,Calm,-,N/A,,Clear,0,2013-08-29 16:53:00
1:53 PM,82.0,66.0,58,30.04,10.0,Variable,3.5,-,N/A,,Scattered Clouds,0,2013-08-29 17:53:00
2:53 PM,81.0,64.9,58,30.02,10.0,Calm,Calm,-,N/A,,Mostly Cloudy,0,2013-08-29 18:53:00
3:53 PM,82.9,64.9,54,30.02,10.0,Calm,Calm,-,N/A,,Partly Cloudy,0,2013-08-29 19:53:00
4:53 PM,84.9,64.9,51,30.01,10.0,Calm,Calm,-,N/A,,Clear,0,2013-08-29 20:53:00
5:53 PM,84.0,64.0,51,30.01,10.0,Calm,Calm,-,N/A,,Clear,0,2013-08-29 21:53:00
6:53 PM,80.1,68.0,67,30.02,10.0,Calm,Calm,-,N/A,,Clear,0,2013-08-29 22:53:00
7:53 PM,73.9,66.9,79,30.02,10.0,Calm,Calm,-,N/A,,Clear,0,2013-08-29 23:53:00
8:53 PM,72.0,66.9,84,30.03,10.0,Calm,Calm,-,0.00,,Clear,0,2013-08-30 00:53:00
9:53 PM,69.1,66.0,90,30.04,8.0,West,4.6,-,N/A,,Clear,260,2013-08-30 01:53:00
10:53 PM,69.1,66.0,90,30.04,10.0,Calm,Calm,-,N/A,,Scattered Clouds,0,2013-08-30 02:53:00
11:53 PM,66.9,64.9,93,30.04,10.0,West,3.5,-,N/A,,Clear,270,2013-08-30 03:53:00